SCP
0 0 0 0 0 0 0 0 0 0 0 0 0 0 0 0 0 0 0 0 0 0 -0 -0 -0 -0 -0 -0 0 0 0 0 0 0 0 0 0 0 0 0 0 0 0
0 0 0 0 0 0 0 0 0 0 0 0 0 0 0 0 0 0 0 0 0 0 0 0 0 0 0 0 0 0 0 0 0 0 0 0 0 0 0 0 0 0 0
0 0 0 0 0 0 0 0 0 0 0 0 0 0 0 0 0 0 0 0 0 0 0 0 0 0 0 0 0 0 0 0 0 0 0 0 0 0 0 0 0 0 0
0 0 0 0 0 0 0 0 0 0 0 0 -0 0 0 0 0 0 0 0 0 0 0 0 0 0 0 0 0 0 0 0 0 0 0 0 0 0 0 0 0 0 0
-0 -0 0 0 0 0 0 0 0 -0 0 0 0 0 0 0 0 0 0 0 0 0 0 0 0 0 0 0 0 0 0 0 0 0 0 0 0 0 0 0 0 0 0
-0 -0 -0 -0 0 0 0 0 0 0 0 0 0 0 0 0 0 0 0 0 0 0 0 0 0 0 0 0 0 0 0 0 0 0 0 0 0 0 0 0 0 0 0
0 0 0 -0 -0 -0 0 -0 0 0 0 0 0 0 0 0 0 0 0 0 0 0 0 0 0 0 0 0 0 0 0 0 0 0 0 0 0 0 0 0 0 0 0
-0 -0 -0 -0 -0 -0 0 0 0 0 0 0 0 0 0 0 0 0 0 0 0 0 0 0 0 0 0 0 0 0 0 0 0 0 0 0 0 0 0 0 0 0 0
-0 -0 -0 -0 -0 0 0 0 -0 -0 0 0 0 0 0 0 0 0 0 0 0 0 0 0 0 0 0 0 0 0 0 0 0 0 0 0 0 0 0 0 0 0 0
0 0 0 0 0 0 -0 -0 -0 0 0 0 0 0 0 0 0 0 0 0 0 0 0 0 0 0 0 0 0 0 0 0 0 0 0 0 0 0 0 0 0 0 0
0 0 0 0 0 0 0 0 0 0 0 0 0 0 0 0 0 0 0 0 0 0 0 0 0 0 0 0 0 0 0 0 0 0 0 0 0 0 0 0 0 0 0
0 0 0 0 0 0 0 0 0 0 0 0 0 0 0 0 0 0 0 0 0 0 0 0 0 0 0 0 0 0 0 0 0 0 0 0 0 0 0 0 0 0 -0
0 0 0 0 0 0 0 0 0 0 0 0 0 0 0 0 0 0 0 0 0 0 0 0 0 0 0 0 0 0 0 0 0 0 0 0 0 0 0 0 0 -0 -0
0 0 0 0 0 0 0 0 0 0 0 0 0 0 0 0 0 0 0 0 0 0 0 0 0 0 0 0 0 0 0 0 0 0 0 0 0 0 0 0 0 -0 -0
0 0 0 0 0 0 0 0 0 0 0 0 0 0 0 0 0 0 0 0 0 0 0 0 0 0 0 0 0 0 0 0 0 0 0 0 0 0 0 0 0 0 0
0 0 0 0 0 0 0 0 0 0 0 0 0 0 0 0 0 0 0 0 0 0 0 0 0 0 0 0 0 0 0 0 0 0 0 0 0 0 0 0 0 0 0
0 0 0 0 0 0 0 0 0 0 0 0 0 0 0 0 0 0 0 0 0 0 0 0 0 0 0 0 -0 0 -0 0 0 -0 0 0 0 0 0 0 0 0 0
0 0 0 0 0 0 0 0 0 0 0 0 0 0 0 0 0 0 -0 -0 -0 0 0 0 0 0 0 0 0 0 0 0 -0 0 0 0 0 0 0 0 0 0 0
0 0 0 0 0 0 0 0 0 0 0 0 0 0 0 0 0 -0 -0 -0 0 0 0 0 0 0 0 0 0 0 -0 -0 0 0 0 0 0 0 0 0 0 0 0
0 0 0 0 0 0 0 0 0 0 0 0 0 0 0 0 -0 -0 -0 0 0 0 0 0 0 0 0 -0 -0 -0 -0 0 0 0 0 0 0 0 0 0 0 0 0
0 0 0 0 0 0 0 0 0 0 0 0 0 0 0 0 0 0 -0 0 0 0 0 0 0 0 0 -0 -0 0 0 0 0 0 0 0 0 0 0 0 0 0 0
0 0 0 0 0 0 0 0 0 0 0 0 0 0 0 0 0 0 0 0 0 0 0 0 0 0 0 0 0 0 0 0 0 0 0 0 0 0 0 0 0 0 0
0 0 0 0 0 0 0 0 0 0 0 0 0 0 0 0 0 0 0 0 0 0 0 0 0 0 0 0 0 0 0 0 0 0 0 0 0 0 0 0 0 0 0
0 0 0 0 0 0 0 0 0 0 0 0 0 0 0 0 0 0 0 0 0 0 0 0 0 0 0 0 0 0 0 0 0 0 0 0 0 0 0 0 0 0 0
0 0 0 0 0 0 0 0 0 0 0 0 0 0 0 0 0 0 0 0 0 0 0 0 0 0 0 0 0 0 0 0 0 0 0 0 0 0 0 0 0 0 0
0 0 0 0 0 0 0 0 0 0 0 0 0 0 0 0 0 0 0 0 0 0 0 0 0 0 0 0 0 0 0 0 0 0 0 0 0 0 0 0 0 0 0
Wind_Speed_500mb
64 57 50 48 47 54 58 53 48 56 61 51 40 34 37 39 32 27 26 25 20 23 19 16 13 11 9 12 11 6 8 12 18 22 23 17 14 15 16 18 21 25 31
64 66 67 65 56 52 55 49 42 38 39 40 34 29 31 32 28 26 25 20 18 16 15 10 7 7 6 7 7 10 14 16 19 19 17 13 12 13 16 19 23 28 32
49 52 48 44 56 59 54 50 41 38 39 39 31 30 32 30 26 25 23 21 16 15 13 10 7 7 3 3 4 5 5 6 6 9 11 8 9 12 13 19 23 27 29
65 66 63 63 60 56 49 43 43 39 37 39 36 33 33 31 30 27 24 23 19 16 15 13 10 8 6 6 4 3 4 4 2 3 4 4 6 11 16 22 28 31 29
56 56 57 56 53 48 48 47 45 39 40 39 36 34 31 29 30 25 23 21 20 17 15 12 10 10 8 7 6 6 5 3 2 2 3 5 10 17 26 30 30 30 28
43 48 44 46 46 46 44 43 38 38 37 33 31 28 25 26 25 22 21 20 19 17 17 17 16 13 10 9 9 9 8 9 7 7 9 13 18 22 24 26 29 31 28
39 40 39 38 38 38 34 30 32 32 30 28 27 24 24 23 21 20 19 17 17 17 16 15 13 11 11 11 13 12 11 10 10 11 13 15 17 19 21 23 26 27 25
30 31 31 32 32 30 28 28 26 24 24 25 26 25 24 23 21 22 21 21 20 19 19 21 21 19 17 15 15 16 15 14 13 14 15 15 17 18 21 22 23 22 22
26 26 26 26 27 29 29 28 25 24 24 23 23 22 22 21 20 21 22 22 22 22 22 22 21 20 18 15 16 18 18 16 14 10 11 14 16 19 20 19 20 24 21
21 23 25 26 25 26 38 37 31 29 27 25 24 23 23 23 23 23 24 25 25 25 25 25 25 22 17 15 15 15 14 14 11 10 11 13 15 16 16 18 23 28 31
24 25 28 30 32 31 30 32 31 29 30 29 29 28 29 29 29 29 28 28 28 26 27 27 27 24 18 17 15 13 11 9 7 6 8 9 11 13 16 20 25 29 32
22 25 29 33 34 33 33 30 26 23 21 21 21 22 22 22 22 23 24 25 24 23 24 25 26 27 20 15 12 11 9 5 2 3 5 7 10 13 17 20 24 27 32
28 28 28 28 26 24 21 20 20 19 18 18 18 17 18 19 21 22 21 21 22 23 23 23 22 24 18 12 7 5 1 3 4 5 6 8 11 13 17 20 23 26 29
22 24 25 25 24 22 21 21 21 22 23 22 19 18 18 17 17 17 19 21 22 21 21 19 17 20 19 7 4 3 4 5 6 7 8 10 11 15 19 21 22 25 30
23 22 23 24 26 27 28 28 28 28 27 25 21 18 16 14 12 12 14 16 16 16 15 14 15 18 16 5 2 3 5 6 8 8 9 10 13 18 20 20 20 21 23
24 26 29 29 29 28 28 29 29 28 27 26 22 13 11 8 8 10 12 13 15 14 12 14 16 16 11 4 2 4 6 8 8 8 9 11 13 18 20 18 18 21 25
26 27 29 30 29 29 29 27 24 24 22 20 17 12 6 5 6 9 13 17 17 14 11 11 13 12 6 2 4 5 7 8 7 7 9 10 15 18 17 15 16 20 25
28 28 27 28 28 26 23 21 20 18 16 17 17 14 11 5 5 9 15 17 14 10 8 8 7 5 4 5 7 8 8 7 6 6 8 11 15 16 15 12 13 17 22
30 30 27 23 21 21 20 21 20 18 15 14 17 17 20 10 7 10 14 12 8 5 3 3 4 5 7 9 9 9 8 7 5 5 7 11 13 13 11 7 9 14 19
32 29 25 21 20 20 20 19 18 17 15 13 14 18 20 17 13 13 12 10 7 3 4 5 7 9 10 10 10 10 8 6 5 5 6 10 11 10 7 3 6 12 18
28 25 21 19 18 18 17 17 15 13 12 14 16 17 16 17 16 13 11 8 6 4 5 7 10 12 12 11 11 10 8 6 6 5 6 9 9 8 5 0 5 11 17
24 20 18 16 14 14 16 15 13 10 11 13 16 18 18 16 15 13 11 9 8 9 10 11 13 13 13 13 12 10 7 6 5 4 7 8 8 7 4 2 7 12 17
20 19 17 14 11 10 12 13 11 9 8 10 13 15 17 15 14 12 12 11 11 12 13 15 15 14 14 13 11 9 7 6 5 5 7 8 7 6 4 4 8 13 17
18 18 16 13 10 7 8 9 9 8 7 8 10 11 12 14 13 13 12 13 13 14 15 15 15 14 13 12 10 8 6 5 4 4 5 6 5 4 3 5 9 13 17
17 16 15 13 10 7 6 6 6 6 6 5 6 6 6 7 9 11 12 13 14 15 15 15 15 14 13 11 9 7 6 4 2 2 4 4 4 3 4 6 9 13 17
17 15 14 12 10 9 7 5 3 3 3 3 3 3 3 4 5 7 9 12 13 14 15 15 14 13 11 9 7 6 4 3 3 2 3 4 4 4 5 7 9 13 17
Wind_Direction_500mb
98 100 98 99 108 103 96 85 80 86 86 81 87 84 83 88 80 72 71 83 79 91 86 86 99 121 157 175 171 172 225 229 231 235 239 260 290 306 312 315 322 329 335
92 98 100 96 90 92 93 87 84 89 85 83 93 85 89 92 88 85 84 87 91 106 107 113 131 155 188 204 206 217 223 223 225 232 244 258 276 303 321 338 347 345 337
90 94 93 104 91 81 84 83 84 86 89 92 92 92 90 88 87 83 81 79 78 81 88 98 96 92 107 149 168 187 193 213 227 240 247 265 310 328 334 334 334 339 339
83 85 87 89 90 90 97 96 89 85 85 87 87 84 86 87 84 82 84 88 87 90 91 93 94 95 86 64 49 44 48 38 327 252 262 299 312 325 329 340 350 351 356
80 84 80 84 88 90 89 84 81 81 79 76 76 74 73 73 71 68 67 64 65 60 58 57 55 49 40 30 23 24 32 32 8 350 332 333 334 343 350 355 358 358 1
85 81 80 79 79 78 76 74 78 74 69 66 64 62 62 62 61 53 49 43 40 32 23 16 12 5 360 353 345 348 342 347 344 357 347 345 352 356 356 1 2 8 10
78 77 75 74 72 69 67 67 63 58 54 49 49 48 46 47 45 36 33 27 26 22 14 5 353 341 331 331 326 324 324 331 337 340 350 357 357 2 8 10 14 15 18
71 69 64 56 52 50 43 39 35 33 28 23 21 19 18 17 14 7 1 359 0 0 356 350 341 333 327 318 316 317 323 333 343 345 352 359 9 18 22 22 24 22 26
74 66 57 43 30 23 10 5 1 0 358 351 348 345 342 344 347 346 342 341 343 346 345 341 336 330 323 313 309 314 320 328 337 344 354 14 24 26 33 39 40 38 40
31 17 6 357 349 342 338 323 335 337 335 335 334 333 333 333 335 340 342 342 342 341 337 333 330 331 324 308 302 306 305 313 330 355 17 30 35 41 45 48 49 53 50
339 339 337 337 332 332 324 316 318 320 321 321 321 322 323 324 324 325 327 330 330 331 328 328 328 330 328 314 305 300 300 313 337 12 34 41 52 59 59 56 61 59 52
319 314 307 308 310 310 310 310 313 316 315 314 315 314 311 311 313 317 321 323 325 327 326 327 329 330 334 318 311 306 311 318 15 65 63 71 73 66 65 71 69 60 51
309 308 309 311 316 317 318 320 321 322 324 325 324 321 320 323 325 328 332 339 342 339 331 330 337 338 342 332 332 327 346 132 131 112 109 97 86 80 80 81 72 60 51
318 317 317 317 317 320 320 318 315 314 313 315 320 325 329 331 337 346 351 348 344 340 336 328 327 335 343 342 1 46 102 117 115 121 116 102 90 91 91 84 72 57 47
317 317 317 316 312 310 310 308 307 306 304 304 308 315 323 334 343 348 346 341 333 320 313 309 312 327 340 341 27 99 117 120 124 128 120 105 102 104 103 92 73 59 48
306 307 309 307 306 305 304 304 304 303 301 298 296 296 307 315 336 344 344 338 338 339 321 305 308 320 329 314 123 124 128 130 130 127 111 105 110 116 110 94 70 52 40
302 305 308 308 306 306 305 305 302 300 295 291 294 290 266 302 325 331 331 338 340 330 316 294 300 307 305 256 151 148 144 141 134 122 110 113 125 123 112 89 63 46 35
299 300 299 299 300 301 302 304 305 301 286 270 273 263 268 259 308 331 328 330 329 322 311 296 290 266 221 183 165 161 155 146 137 118 118 130 134 129 115 89 61 41 30
297 300 300 301 301 302 305 309 307 298 285 264 251 245 250 274 294 311 323 324 328 320 294 252 227 192 172 168 168 166 160 153 142 133 130 141 141 137 128 99 53 31 20
296 297 298 299 301 304 308 307 300 285 267 251 240 233 242 252 267 291 302 307 306 272 210 185 175 169 168 171 171 168 167 167 161 148 140 150 151 152 150 110 31 15 10
288 286 287 290 295 302 310 313 307 290 265 246 242 242 244 247 259 269 281 285 269 233 193 175 167 165 169 172 172 174 174 175 168 151 157 165 166 171 175 167 358 359 1
282 276 275 279 288 308 320 325 318 298 269 249 247 251 249 246 252 256 255 245 221 200 184 175 172 169 170 174 176 177 180 178 170 164 169 174 183 191 208 294 336 347 351
271 268 268 272 284 309 323 330 322 300 275 260 256 256 258 253 244 237 228 219 209 196 183 174 174 174 176 180 181 184 187 178 175 174 181 185 192 205 237 304 332 342 345
260 261 261 265 275 297 323 331 326 314 296 278 268 263 260 258 249 235 223 209 196 189 183 179 176 176 178 181 186 190 186 178 184 189 190 193 205 225 271 311 330 337 341
251 252 255 258 262 275 293 313 329 333 324 314 300 283 265 251 246 235 219 203 193 187 184 181 181 181 181 182 185 184 176 184 204 208 210 210 217 240 284 316 328 335 342
249 245 248 252 255 258 265 279 306 342 3 5 348 311 276 246 224 215 206 196 189 186 184 182 183 184 183 184 185 182 189 201 215 224 231 219 231 259 289 310 325 336 341
Wind_Speed_850mb
64 57 50 48 47 54 58 53 48 56 61 51 40 34 37 39 32 27 26 25 20 23 19 16 13 11 9 12 11 6 8 12 18 22 23 17 14 15 16 18 21 25 31
64 66 67 65 56 52 55 49 42 38 39 40 34 29 31 32 28 26 25 20 18 16 15 10 7 7 6 7 7 10 14 16 19 19 17 13 12 13 16 19 23 28 32
49 52 48 44 56 59 54 50 41 38 39 39 31 30 32 30 26 25 23 21 16 15 13 10 7 7 3 3 4 5 5 6 6 9 11 8 9 12 13 19 23 27 29
65 66 63 63 60 56 49 43 43 39 37 39 36 33 33 31 30 27 24 23 19 16 15 13 10 8 6 6 4 3 4 4 2 3 4 4 6 11 16 22 28 31 29
56 56 57 56 53 48 48 47 45 39 40 39 36 34 31 29 30 25 23 21 20 17 15 12 10 10 8 7 6 6 5 3 2 2 3 5 10 17 26 30 30 30 28
43 48 44 46 46 46 44 43 38 38 37 33 31 28 25 26 25 22 21 20 19 17 17 17 16 13 10 9 9 9 8 9 7 7 9 13 18 22 24 26 29 31 28
39 40 39 38 38 38 34 30 32 32 30 28 27 24 24 23 21 20 19 17 17 17 16 15 13 11 11 11 13 12 11 10 10 11 13 15 17 19 21 23 26 27 25
30 31 31 32 32 30 28 28 26 24 24 25 26 25 24 23 21 22 21 21 20 19 19 21 21 19 17 15 15 16 15 14 13 14 15 15 17 18 21 22 23 22 22
26 26 26 26 27 29 29 28 25 24 24 23 23 22 22 21 20 21 22 22 22 22 22 22 21 20 18 15 16 18 18 16 14 10 11 14 16 19 20 19 20 24 21
21 23 25 26 25 26 38 37 31 29 27 25 24 23 23 23 23 23 24 25 25 25 25 25 25 22 17 15 15 15 14 14 11 10 11 13 15 16 16 18 23 28 31
24 25 28 30 32 31 30 32 31 29 30 29 29 28 29 29 29 29 28 28 28 26 27 27 27 24 18 17 15 13 11 9 7 6 8 9 11 13 16 20 25 29 32
22 25 29 33 34 33 33 30 26 23 21 21 21 22 22 22 22 23 24 25 24 23 24 25 26 27 20 15 12 11 9 5 2 3 5 7 10 13 17 20 24 27 32
28 28 28 28 26 24 21 20 20 19 18 18 18 17 18 19 21 22 21 21 22 23 23 23 22 24 18 12 7 5 1 3 4 5 6 8 11 13 17 20 23 26 29
22 24 25 25 24 22 21 21 21 22 23 22 19 18 18 17 17 17 19 21 22 21 21 19 17 20 19 7 4 3 4 5 6 7 8 10 11 15 19 21 22 25 30
23 22 23 24 26 27 28 28 28 28 27 25 21 18 16 14 12 12 14 16 16 16 15 14 15 18 16 5 2 3 5 6 8 8 9 10 13 18 20 20 20 21 23
24 26 29 29 29 28 28 29 29 28 27 26 22 13 11 8 8 10 12 13 15 14 12 14 16 16 11 4 2 4 6 8 8 8 9 11 13 18 20 18 18 21 25
26 27 29 30 29 29 29 27 24 24 22 20 17 12 6 5 6 9 13 17 17 14 11 11 13 12 6 2 4 5 7 8 7 7 9 10 15 18 17 15 16 20 25
28 28 27 28 28 26 23 21 20 18 16 17 17 14 11 5 5 9 15 17 14 10 8 8 7 5 4 5 7 8 8 7 6 6 8 11 15 16 15 12 13 17 22
30 30 27 23 21 21 20 21 20 18 15 14 17 17 20 10 7 10 14 12 8 5 3 3 4 5 7 9 9 9 8 7 5 5 7 11 13 13 11 7 9 14 19
32 29 25 21 20 20 20 19 18 17 15 13 14 18 20 17 13 13 12 10 7 3 4 5 7 9 10 10 10 10 8 6 5 5 6 10 11 10 7 3 6 12 18
28 25 21 19 18 18 17 17 15 13 12 14 16 17 16 17 16 13 11 8 6 4 5 7 10 12 12 11 11 10 8 6 6 5 6 9 9 8 5 0 5 11 17
24 20 18 16 14 14 16 15 13 10 11 13 16 18 18 16 15 13 11 9 8 9 10 11 13 13 13 13 12 10 7 6 5 4 7 8 8 7 4 2 7 12 17
20 19 17 14 11 10 12 13 11 9 8 10 13 15 17 15 14 12 12 11 11 12 13 15 15 14 14 13 11 9 7 6 5 5 7 8 7 6 4 4 8 13 17
18 18 16 13 10 7 8 9 9 8 7 8 10 11 12 14 13 13 12 13 13 14 15 15 15 14 13 12 10 8 6 5 4 4 5 6 5 4 3 5 9 13 17
17 16 15 13 10 7 6 6 6 6 6 5 6 6 6 7 9 11 12 13 14 15 15 15 15 14 13 11 9 7 6 4 2 2 4 4 4 3 4 6 9 13 17
17 15 14 12 10 9 7 5 3 3 3 3 3 3 3 4 5 7 9 12 13 14 15 15 14 13 11 9 7 6 4 3 3 2 3 4 4 4 5 7 9 13 17
Wind_Direction_850mb
98 100 98 99 108 103 96 85 80 86 86 81 87 84 83 88 80 72 71 83 79 91 86 86 99 121 157 175 171 172 225 229 231 235 239 260 290 306 312 315 322 329 335
92 98 100 96 90 92 93 87 84 89 85 83 93 85 89 92 88 85 84 87 91 106 107 113 131 155 188 204 206 217 223 223 225 232 244 258 276 303 321 338 347 345 337
90 94 93 104 91 81 84 83 84 86 89 92 92 92 90 88 87 83 81 79 78 81 88 98 96 92 107 149 168 187 193 213 227 240 247 265 310 328 334 334 334 339 339
83 85 87 89 90 90 97 96 89 85 85 87 87 84 86 87 84 82 84 88 87 90 91 93 94 95 86 64 49 44 48 38 327 252 262 299 312 325 329 340 350 351 356
80 84 80 84 88 90 89 84 81 81 79 76 76 74 73 73 71 68 67 64 65 60 58 57 55 49 40 30 23 24 32 32 8 350 332 333 334 343 350 355 358 358 1
85 81 80 79 79 78 76 74 78 74 69 66 64 62 62 62 61 53 49 43 40 32 23 16 12 5 360 353 345 348 342 347 344 357 347 345 352 356 356 1 2 8 10
78 77 75 74 72 69 67 67 63 58 54 49 49 48 46 47 45 36 33 27 26 22 14 5 353 341 331 331 326 324 324 331 337 340 350 357 357 2 8 10 14 15 18
71 69 64 56 52 50 43 39 35 33 28 23 21 19 18 17 14 7 1 359 0 0 356 350 341 333 327 318 316 317 323 333 343 345 352 359 9 18 22 22 24 22 26
74 66 57 43 30 23 10 5 1 0 358 351 348 345 342 344 347 346 342 341 343 346 345 341 336 330 323 313 309 314 320 328 337 344 354 14 24 26 33 39 40 38 40
31 17 6 357 349 342 338 323 335 337 335 335 334 333 333 333 335 340 342 342 342 341 337 333 330 331 324 308 302 306 305 313 330 355 17 30 35 41 45 48 49 53 50
339 339 337 337 332 332 324 316 318 320 321 321 321 322 323 324 324 325 327 330 330 331 328 328 328 330 328 314 305 300 300 313 337 12 34 41 52 59 59 56 61 59 52
319 314 307 308 310 310 310 310 313 316 315 314 315 314 311 311 313 317 321 323 325 327 326 327 329 330 334 318 311 306 311 318 15 65 63 71 73 66 65 71 69 60 51
309 308 309 311 316 317 318 320 321 322 324 325 324 321 320 323 325 328 332 339 342 339 331 330 337 338 342 332 332 327 346 132 131 112 109 97 86 80 80 81 72 60 51
318 317 317 317 317 320 320 318 315 314 313 315 320 325 329 331 337 346 351 348 344 340 336 328 327 335 343 342 1 46 102 117 115 121 116 102 90 91 91 84 72 57 47
317 317 317 316 312 310 310 308 307 306 304 304 308 315 323 334 343 348 346 341 333 320 313 309 312 327 340 341 27 99 117 120 124 128 120 105 102 104 103 92 73 59 48
306 307 309 307 306 305 304 304 304 303 301 298 296 296 307 315 336 344 344 338 338 339 321 305 308 320 329 314 123 124 128 130 130 127 111 105 110 116 110 94 70 52 40
302 305 308 308 306 306 305 305 302 300 295 291 294 290 266 302 325 331 331 338 340 330 316 294 300 307 305 256 151 148 144 141 134 122 110 113 125 123 112 89 63 46 35
299 300 299 299 300 301 302 304 305 301 286 270 273 263 268 259 308 331 328 330 329 322 311 296 290 266 221 183 165 161 155 146 137 118 118 130 134 129 115 89 61 41 30
297 300 300 301 301 302 305 309 307 298 285 264 251 245 250 274 294 311 323 324 328 320 294 252 227 192 172 168 168 166 160 153 142 133 130 141 141 137 128 99 53 31 20
296 297 298 299 301 304 308 307 300 285 267 251 240 233 242 252 267 291 302 307 306 272 210 185 175 169 168 171 171 168 167 167 161 148 140 150 151 152 150 110 31 15 10
288 286 287 290 295 302 310 313 307 290 265 246 242 242 244 247 259 269 281 285 269 233 193 175 167 165 169 172 172 174 174 175 168 151 157 165 166 171 175 167 358 359 1
282 276 275 279 288 308 320 325 318 298 269 249 247 251 249 246 252 256 255 245 221 200 184 175 172 169 170 174 176 177 180 178 170 164 169 174 183 191 208 294 336 347 351
271 268 268 272 284 309 323 330 322 300 275 260 256 256 258 253 244 237 228 219 209 196 183 174 174 174 176 180 181 184 187 178 175 174 181 185 192 205 237 304 332 342 345
260 261 261 265 275 297 323 331 326 314 296 278 268 263 260 258 249 235 223 209 196 189 183 179 176 176 178 181 186 190 186 178 184 189 190 193 205 225 271 311 330 337 341
251 252 255 258 262 275 293 313 329 333 324 314 300 283 265 251 246 235 219 203 193 187 184 181 181 181 181 182 185 184 176 184 204 208 210 210 217 240 284 316 328 335 342
249 245 248 252 255 258 265 279 306 342 3 5 348 311 276 246 224 215 206 196 189 186 184 182 183 184 183 184 185 182 189 201 215 224 231 219 231 259 289 310 325 336 341